This is the latest recevied weather packets stored in our database for station/object JR5VPD-10. If no packets are shown the sender has not sent any weather packets the latest 10 day(s).
| Time | Temp. | Humidity | Pressure | Rain* | Wind** | Luminosity | Snow |
|---|---|---|---|---|---|---|---|
| 1787555172 | 31.67° C | 74% | 1008.7 hPa | 0 mm | 0 m/s | - | - |
| 1787553372 | 31.67° C | 74% | 1008.8 hPa | 0 mm | 0 m/s | - | - |
| 1787551572 | 32.78° C | 68% | 1009.3 hPa | 0 mm | 0 m/s | - | - |
| 1787549772 | 31.67° C | 70% | 1009.4 hPa | 0 mm | 0 m/s | - | - |
| 1787547972 | 31.67° C | 67% | 1009.8 hPa | 0 mm | 0 m/s | - | - |
| 1787546172 | 31.67° C | 67% | 1010.3 hPa | 0 mm | 0 m/s | - | - |
| 1787544372 | 32.78° C | 70% | 1010.6 hPa | 0 mm | 0 m/s | - | - |
| 1787542572 | 32.78° C | 73% | 1010.8 hPa | 0 mm | 0 m/s | - | - |
| 1787540772 | 32.78° C | 68% | 1011.1 hPa | 0 mm | 0 m/s | - | - |
| 1787538972 | 32.78° C | 65% | 1011.2 hPa | 0 mm | 0 m/s | - | - |
| 1787537172 | 32.78° C | 68% | 1011.4 hPa | 0 mm | 0 m/s | - | - |
| 1787535372 | 32.78° C | 74% | 1011.5 hPa | 0 mm | 0 m/s | - | - |
| 1787533572 | 31.67° C | 79% | 1011.7 hPa | 0 mm | 0 m/s | - | - |
| 1787531772 | 31.67° C | 81% | 1011.8 hPa | 0 mm | 0 m/s | - | - |
| 1787529972 | 30.56° C | 81% | 1011.8 hPa | 0 mm | 0 m/s | - | - |
| 1787528172 | 30.56° C | 80% | 1011.7 hPa | 0 mm | 0 m/s | - | - |
| 1787526372 | 28.89° C | 88% | 1011.9 hPa | 0 mm | 0 m/s | - | - |
| 1787524572 | 30° C | 85% | 1011.9 hPa | 0 mm | 0 m/s | - | - |
| 1787522772 | 30° C | 84% | 1011.9 hPa | 0 mm | 0 m/s | - | - |
| 1787520972 | 28.89° C | 86% | 1011.8 hPa | 0 mm | 0 m/s | - | - |
| 1787519172 | 28.89° C | 87% | 1011.7 hPa | 0 mm | 0 m/s | - | - |
| 1787517372 | 28.89° C | 85% | 1011.6 hPa | 0 mm | 0 m/s | - | - |
| 1787515572 | 28.89° C | 89% | 1011.4 hPa | 0 mm | 0 m/s | - | - |
| 1787513772 | 28.89° C | 87% | 1011.2 hPa | 0 mm | 0 m/s | - | - |
| 1787511972 | 28.89° C | 86% | 1011.3 hPa | 0 mm | 0 m/s | - | - |
* Rain latest hour (hover to see other rain measurements)
** Current wind speed in m/s (hover to see current wind gust speed)